| time (UTC) | temp C | wind direction | speed KPH | gust KPH | rain 1hr cm | rain 24hr cm | rain mn cm | humidity % | barometer mb |
| 20260505235520 | 16 | 275 | 0.0 | 0.0 | 0.05 | 0.13 | 0.13 | 62 | 1006.4 |
| 20260505235020 | 16 | 275 | 0.0 | 0.0 | 0.08 | 0.13 | 0.13 | 62 | 1006.2 |
| 20260505234521 | 16 | 275 | 0.0 | 0.0 | 0.10 | 0.13 | 0.13 | 62 | 1006.3 |
| 20260505234018 | 16 | 275 | 0.0 | 0.0 | 0.10 | 0.13 | 0.13 | 62 | 1006.3 |
| 20260505233519 | 16 | 275 | 0.0 | 0.0 | 0.10 | 0.13 | 0.13 | 62 | 1006.2 |
| 20260505233018 | 16 | 275 | 0.0 | 0.0 | 0.10 | 0.13 | 0.13 | 62 | 1006.2 |
| 20260505232520 | 16 | 275 | 0.0 | 0.0 | 0.08 | 0.10 | 0.10 | 62 | 1006.2 |
| 20260505232019 | 16 | 275 | 0.0 | 0.0 | 0.08 | 0.10 | 0.10 | 62 | 1006.2 |
| 20260505231519 | 16 | 275 | 0.0 | 0.0 | 0.05 | 0.08 | 0.08 | 62 | 1006.4 |
| 20260505231018 | 16 | 275 | 0.0 | 0.0 | 0.05 | 0.08 | 0.08 | 63 | 1006.6 |
| 20260505230517 | 17 | 246 | 0.0 | 0.0 | 0.05 | 0.08 | 0.08 | 62 | 1006.4 |
| 20260505230030 | 18 | 237 | 0.0 | 0.0 | 0.05 | 0.08 | 0.08 | 58 | 1006.2 |
| 20260505225518 | 18 | 238 | 0.0 | 0.0 | 0.05 | 0.08 | 0.08 | 58 | 1006.2 |
| 20260505225018 | 18 | 238 | 0.0 | 0.0 | 0.03 | 0.05 | 0.05 | 57 | 1006.5 |
| 20260505224517 | 18 | 238 | 0.0 | 0.0 | 0.00 | 0.03 | 0.03 | 57 | 1006.6 |
| 20260505224015 | 18 | 238 | 0.0 | 0.0 | 0.00 | 0.03 | 0.03 | 56 | 1006.5 |
| 20260505223516 | 18 | 209 | 0.0 | 0.0 | 0.03 | 0.03 | 0.03 | 55 | 1006.4 |
| 20260505223015 | 19 | 229 | 0.0 | 0.0 | 0.03 | 0.03 | 0.03 | 53 | 1006.5 |
| 20260505222518 | 19 | 208 | 0.0 | 0.0 | 0.03 | 0.03 | 0.03 | 52 | 1006.4 |
| 20260505222016 | 19 | 207 | 0.0 | 0.0 | 0.03 | 0.03 | 0.03 | 51 | 1006.2 |
| 20260505221515 | 19 | 203 | 0.0 | 0.0 | 0.03 | 0.03 | 0.03 | 51 | 1006.1 |
| 20260505221015 | 19 | 186 | 0.0 | 0.0 | 0.03 | 0.03 | 0.03 | 50 | 1006.4 |
| 20260505220516 | 20 | 217 | 0.0 | 0.0 | 0.03 | 0.03 | 0.03 | 49 | 1006.3 |
| 20260505220014 | 20 | 223 | 0.0 | 0.0 | 0.03 | 0.03 | 0.03 | 49 | 1006.1 |
| 20260505215518 | 20 | 191 | 0.0 | 0.0 | 0.03 | 0.03 | 0.03 | 47 | 1006.2 |
| 20260505215014 | 20 | 187 | 0.0 | 0.0 | 0.03 | 0.03 | 0.03 | 45 | 1006.3 |
| 20260505214514 | 20 | 194 | 0.0 | 0.0 | 0.03 | 0.03 | 0.03 | 45 | 1006.2 |
| 20260505214014 | 20 | 234 | 0.0 | 0.0 | 0.03 | 0.03 | 0.03 | 46 | 1006.1 |
| 20260505213512 | 20 | 215 | 0.0 | 0.0 | 0.00 | 0.00 | 0.00 | 46 | 1006.0 |
| 20260505213013 | 20 | 194 | 0.0 | 0.0 | 0.00 | 0.00 | 0.00 | 48 | 1006.3 |
| 20260505212511 | 20 | 219 | 0.0 | 1.6 | 0.00 | 0.00 | 0.00 | 49 | 1006.2 |
| 20260505212010 | 20 | 156 | 0.0 | 1.6 | 0.00 | 0.00 | 0.00 | 49 | 1006.1 |
| 20260505211515 | 20 | 188 | 0.0 | 0.0 | 0.00 | 0.00 | 0.00 | 49 | 1006.3 |
| 20260505211009 | 20 | 179 | 0.0 | 0.0 | 0.00 | 0.00 | 0.00 | 48 | 1006.3 |
| 20260505210508 | 20 | 178 | 0.0 | 0.0 | 0.00 | 0.00 | 0.00 | 49 | 1006.5 |
| 20260505210008 | 20 | 175 | 0.0 | 0.0 | 0.00 | 0.00 | 0.00 | 49 | 1006.5 |
| 20260505205513 | 20 | 205 | 0.0 | 0.0 | 0.00 | 0.00 | 0.00 | 49 | 1006.6 |
| 20260505205006 | 20 | 188 | 0.0 | 0.0 | 0.00 | 0.00 | 0.00 | 49 | 1006.6 |
| 20260505204506 | 20 | 178 | 0.0 | 1.6 | 0.00 | 0.00 | 0.00 | 49 | 1006.7 |
| 20260505204003 | 20 | 187 | 0.0 | 0.0 | 0.00 | 0.00 | 0.00 | 49 | 1006.8 |
| 20260505203503 | 20 | 192 | 0.0 | 0.0 | 0.00 | 0.00 | 0.00 | 50 | 1006.9 |
| 20260505203003 | 20 | 187 | 0.0 | 0.0 | 0.00 | 0.00 | 0.00 | 53 | 1007.0 |
| 20260505202500 | 19 | 200 | 0.0 | 0.0 | 0.00 | 0.00 | 0.00 | 54 | 1007.1 |
| 20260505202102 | 19 | 221 | 0.0 | 0.0 | 0.00 | 0.00 | 0.00 | 54 | 1007.2 |
| 20260505201601 | 19 | 200 | 0.0 | 0.0 | 0.00 | 0.00 | 0.00 | 55 | 1007.3 |
| 20260505201500 | 19 | 196 | 0.0 | 0.0 | 0.00 | 0.00 | 0.00 | 54 | 1007.3 |
| 20260505201100 | 19 | 195 | 0.0 | 0.0 | 0.00 | 0.00 | 0.00 | 55 | 1007.4 |
| 20260505200600 | 19 | 212 | 0.0 | 0.0 | 0.00 | 0.00 | 0.00 | 55 | 1007.4 |
| 20260505200100 | 19 | 210 | 0.0 | 0.0 | 0.00 | 0.00 | 0.00 | 56 | 1007.4 |
| 20260505195559 | 19 | 210 | 0.0 | 0.0 | 0.00 | 0.00 | 0.00 | 56 | 1007.5 |
| 20260505195059 | 19 | 198 | 0.0 | 0.0 | 0.00 | 0.00 | 0.00 | 56 | 1007.6 |
| 20260505194559 | 19 | 205 | 0.0 | 0.0 | 0.00 | 0.00 | 0.00 | 57 | 1007.8 |
| 20260505194058 | 19 | 217 | 0.0 | 0.0 | 0.00 | 0.00 | 0.00 | 56 | 1007.8 |
| 20260505193558 | 19 | 208 | 0.0 | 0.0 | 0.00 | 0.00 | 0.00 | 57 | 1008.0 |
| 20260505193100 | 19 | 225 | 0.0 | 0.0 | 0.00 | 0.00 | 0.00 | 57 | 1008.0 |
| 20260505192600 | 19 | 232 | 0.0 | 0.0 | 0.00 | 0.00 | 0.00 | 57 | 1008.1 |
| 20260505192058 | 19 | 202 | 0.0 | 0.0 | 0.00 | 0.00 | 0.00 | 58 | 1008.1 |
| 20260505191604 | 18 | 228 | 0.0 | 0.0 | 0.00 | 0.00 | 0.00 | 59 | 1008.2 |
| 20260505191058 | 18 | 219 | 0.0 | 0.0 | 0.00 | 0.00 | 0.00 | 59 | 1008.3 |
| 20260505190601 | 18 | 202 | 0.0 | 0.0 | 0.00 | 0.00 | 0.00 | 60 | 1008.4 |
| 20260505190109 | 18 | 224 | 0.0 | 0.0 | 0.00 | 0.00 | 0.00 | 61 | 1008.4 |
| 20260505185557 | 18 | 216 | 0.0 | 1.6 | 0.00 | 0.00 | 0.00 | 60 | 1008.3 |
| 20260505185056 | 18 | 205 | 0.0 | 0.0 | 0.00 | 0.00 | 0.00 | 60 | 1008.4 |
| 20260505184556 | 18 | 215 | 0.0 | 0.0 | 0.00 | 0.00 | 0.00 | 60 | 1008.5 |
| 20260505184056 | 18 | 229 | 0.0 | 0.0 | 0.00 | 0.00 | 0.00 | 60 | 1008.5 |
| 20260505183554 | 18 | 196 | 0.0 | 0.0 | 0.00 | 0.00 | 0.00 | 60 | 1008.5 |
| 20260505183055 | 18 | 240 | 0.0 | 0.0 | 0.00 | 0.00 | 0.00 | 59 | 1008.6 |
| 20260505182554 | 18 | 221 | 0.0 | 0.0 | 0.00 | 0.00 | 0.00 | 58 | 1008.5 |
| 20260505182054 | 18 | 215 | 0.0 | 0.0 | 0.00 | 0.00 | 0.00 | 58 | 1008.6 |
| 20260505181636 | 18 | 238 | 0.0 | 0.0 | 0.00 | 0.00 | 0.00 | 58 | 1008.8 |
| 20260505181056 | 18 | 225 | 0.0 | 0.0 | 0.00 | 0.00 | 0.00 | 59 | 1008.8 |
| 20260505180554 | 18 | 235 | 0.0 | 0.0 | 0.00 | 0.00 | 0.00 | 58 | 1008.8 |
| 20260505175553 | 18 | 237 | 0.0 | 0.0 | 0.00 | 0.00 | 0.00 | 56 | 1008.8 |
| 20260505175053 | 19 | 261 | 0.0 | 0.0 | 0.00 | 0.00 | 0.00 | 54 | 1008.8 |
| 20260505174553 | 19 | 217 | 0.0 | 0.0 | 0.00 | 0.00 | 0.00 | 54 | 1008.9 |
| 20260505174053 | 19 | 246 | 0.0 | 0.0 | 0.00 | 0.00 | 0.00 | 54 | 1009.0 |
| 20260505173552 | 19 | 217 | 0.0 | 0.0 | 0.00 | 0.00 | 0.00 | 54 | 1009.0 |
| 20260505173052 | 19 | 225 | 0.0 | 0.0 | 0.00 | 0.00 | 0.00 | 53 | 1008.8 |
| 20260505172552 | 19 | 216 | 0.0 | 0.0 | 0.00 | 0.00 | 0.00 | 53 | 1008.9 |
| 20260505172052 | 19 | 230 | 0.0 | 0.0 | 0.00 | 0.00 | 0.00 | 53 | 1009.0 |
| 20260505171600 | 19 | 245 | 0.0 | 0.0 | 0.00 | 0.00 | 0.00 | 53 | 1009.0 |
| 20260505171053 | 19 | 211 | 0.0 | 0.0 | 0.00 | 0.00 | 0.00 | 53 | 1008.9 |
| 20260505170553 | 19 | 210 | 0.0 | 11.3 | 0.00 | 0.00 | 0.00 | 52 | 1009.0 |
| 20260505170052 | 19 | 231 | 0.0 | 24.1 | 0.00 | 0.00 | 0.00 | 53 | 1009.0 |
| 20260505165551 | 19 | 229 | 6.4 | 24.1 | 0.00 | 0.00 | 0.00 | 53 | 1008.9 |
| 20260505165050 | 19 | 212 | 11.3 | 24.1 | 0.00 | 0.00 | 0.00 | 52 | 1008.9 |
| 20260505164551 | 19 | 201 | 8.0 | 24.1 | 0.00 | 0.00 | 0.00 | 52 | 1008.8 |
| 20260505164049 | 19 | 190 | 14.5 | 27.4 | 0.00 | 0.00 | 0.00 | 52 | 1008.8 |
| 20260505163550 | 19 | 206 | 11.3 | 27.4 | 0.00 | 0.00 | 0.00 | 52 | 1008.9 |
| 20260505163049 | 19 | 219 | 11.3 | 24.1 | 0.00 | 0.00 | 0.00 | 52 | 1009.0 |
| 20260505162548 | 18 | 180 | 8.0 | 29.0 | 0.00 | 0.00 | 0.00 | 53 | 1009.3 |
| 20260505162048 | 18 | 225 | 17.7 | 29.0 | 0.00 | 0.00 | 0.00 | 52 | 1009.3 |
| 20260505161550 | 18 | 184 | 20.9 | 29.0 | 0.00 | 0.00 | 0.00 | 52 | 1009.4 |
| 20260505161048 | 18 | 176 | 14.5 | 29.0 | 0.00 | 0.00 | 0.00 | 53 | 1009.5 |
| 20260505160548 | 18 | 196 | 9.7 | 29.0 | 0.00 | 0.00 | 0.00 | 53 | 1009.6 |
| 20260505153046 | 18 | 236 | 9.7 | 27.4 | 0.00 | 0.03 | 0.00 | 52 | 1009.5 |
| 20260505152544 | 18 | 212 | 16.1 | 27.4 | 0.00 | 0.03 | 0.00 | 52 | 1009.4 |
| 20260505152044 | 18 | 224 | 16.1 | 29.0 | 0.00 | 0.03 | 0.00 | 51 | 1009.4 |
| 20260505151544 | 18 | 210 | 0.0 | 0.0 | 0.00 | 0.03 | 0.00 | 51 | 1009.4 |
| 20260505151044 | 18 | 214 | 0.0 | 0.0 | 0.00 | 0.03 | 0.00 | 51 | 1009.4 |
| 20260505150543 | 18 | 196 | 0.0 | 0.0 | 0.00 | 0.03 | 0.00 | 51 | 1009.4 |
| 20260505140542 | 17 | 202 | 0.0 | 0.0 | 0.00 | 0.03 | 0.00 | 53 | 1009.3 |
| 20260505125037 | 16 | 175 | 0.0 | 0.0 | 0.00 | 0.03 | 0.00 | 53 | 1009.4 |
| 20260505124537 | 16 | 177 | 0.0 | 0.0 | 0.00 | 0.03 | 0.00 | 53 | 1009.4 |
| 20260505124040 | 16 | 175 | 0.0 | 0.0 | 0.00 | 0.03 | 0.00 | 53 | 1009.4 |
| 20260505123541 | 16 | 173 | 0.0 | 0.0 | 0.00 | 0.03 | 0.00 | 53 | 1009.4 |
| 20260505123047 | 16 | 173 | 0.0 | 0.0 | 0.00 | 0.03 | 0.00 | 54 | 1009.5 |
| 20260505122536 | 16 | 189 | 0.0 | 0.0 | 0.00 | 0.03 | 0.00 | 53 | 1009.5 |
| 20260505122036 | 16 | 189 | 0.0 | 0.0 | 0.00 | 0.03 | 0.00 | 54 | 1009.5 |
| 20260505121536 | 16 | 194 | 0.0 | 0.0 | 0.00 | 0.03 | 0.00 | 54 | 1009.4 |
| 20260505121036 | 16 | 194 | 0.0 | 0.0 | 0.00 | 0.03 | 0.00 | 54 | 1009.4 |
| 20260505120539 | 16 | 194 | 0.0 | 0.0 | 0.00 | 0.03 | 0.00 | 54 | 1009.4 |
| 20260505120051 | 15 | 194 | 0.0 | 0.0 | 0.00 | 0.03 | 0.00 | 54 | 1009.6 |
| 20260505115534 | 15 | 194 | 0.0 | 0.0 | 0.00 | 0.03 | 0.00 | 55 | 1009.5 |
| 20260505115034 | 15 | 194 | 0.0 | 0.0 | 0.00 | 0.03 | 0.00 | 54 | 1009.4 |
| 20260505114534 | 15 | 194 | 0.0 | 1.6 | 0.00 | 0.03 | 0.00 | 54 | 1009.4 |
| 20260505114033 | 15 | 194 | 0.0 | 1.6 | 0.00 | 0.03 | 0.00 | 55 | 1009.3 |
| 20260505113539 | 15 | 194 | 0.0 | 0.0 | 0.00 | 0.03 | 0.00 | 55 | 1009.4 |
| 20260505113034 | 15 | 194 | 0.0 | 0.0 | 0.00 | 0.03 | 0.00 | 56 | 1009.2 |
| 20260505112533 | 15 | 194 | 0.0 | 1.6 | 0.00 | 0.03 | 0.00 | 55 | 1009.1 |
| 20260505112033 | 15 | 194 | 0.0 | 1.6 | 0.00 | 0.03 | 0.00 | 56 | 1009.2 |
| 20260505111536 | 15 | 340 | 0.0 | 0.0 | 0.00 | 0.03 | 0.00 | 56 | 1009.2 |
| 20260505111033 | 15 | 340 | 0.0 | 0.0 | 0.00 | 0.03 | 0.00 | 56 | 1009.3 |
| 20260505110530 | 15 | 340 | 0.0 | 0.0 | 0.00 | 0.03 | 0.00 | 55 | 1009.2 |
| 20260505102029 | 16 | 186 | 0.0 | 0.0 | 0.00 | 0.03 | 0.00 | 51 | 1009.1 |
| 20260505101525 | 16 | 226 | 0.0 | 0.0 | 0.00 | 0.03 | 0.00 | 51 | 1009.0 |
| 20260505101023 | 16 | 207 | 0.0 | 0.0 | 0.00 | 0.03 | 0.00 | 51 | 1008.8 |
| 20260505100522 | 16 | 227 | 0.0 | 0.0 | 0.00 | 0.03 | 0.00 | 51 | 1008.8 |
| 20260505100024 | 16 | 220 | 0.0 | 0.0 | 0.00 | 0.03 | 0.00 | 51 | 1008.7 |
| 20260505095523 | 16 | 220 | 0.0 | 0.0 | 0.00 | 0.03 | 0.00 | 51 | 1008.4 |
| 20260505095020 | 16 | 215 | 0.0 | 0.0 | 0.00 | 0.03 | 0.00 | 51 | 1008.5 |
| 20260505094520 | 16 | 193 | 0.0 | 0.0 | 0.00 | 0.03 | 0.00 | 51 | 1008.5 |
| 20260505094021 | 16 | 211 | 0.0 | 0.0 | 0.00 | 0.03 | 0.00 | 51 | 1008.4 |
| 20260505093519 | 16 | 202 | 0.0 | 0.0 | 0.00 | 0.03 | 0.00 | 51 | 1008.4 |
| 20260505093019 | 16 | 208 | 0.0 | 0.0 | 0.00 | 0.03 | 0.00 | 51 | 1008.3 |
| 20260505092519 | 16 | 200 | 0.0 | 0.0 | 0.00 | 0.03 | 0.00 | 50 | 1008.3 |
| 20260505092017 | 16 | 215 | 0.0 | 0.0 | 0.00 | 0.03 | 0.00 | 50 | 1008.3 |
| 20260505091516 | 16 | 218 | 0.0 | 0.0 | 0.00 | 0.03 | 0.00 | 50 | 1008.3 |
| 20260505091014 | 16 | 231 | 0.0 | 0.0 | 0.00 | 0.03 | 0.00 | 49 | 1008.3 |
| 20260505090514 | 16 | 214 | 0.0 | 0.0 | 0.00 | 0.03 | 0.00 | 49 | 1008.4 |
| 20260505090013 | 17 | 198 | 0.0 | 0.0 | 0.00 | 0.03 | 0.00 | 49 | 1008.3 |
| 20260505085513 | 17 | 193 | 0.0 | 0.0 | 0.00 | 0.03 | 0.00 | 49 | 1008.3 |
| 20260505085013 | 17 | 223 | 0.0 | 0.0 | 0.00 | 0.03 | 0.00 | 49 | 1008.2 |
| 20260505084512 | 17 | 223 | 0.0 | 0.0 | 0.00 | 0.03 | 0.00 | 48 | 1008.1 |
| 20260505084011 | 17 | 231 | 0.0 | 0.0 | 0.00 | 0.03 | 0.00 | 48 | 1008.2 |
| 20260505083514 | 17 | 219 | 0.0 | 0.0 | 0.00 | 0.03 | 0.00 | 48 | 1008.1 |
| 20260505083011 | 17 | 213 | 0.0 | 0.0 | 0.00 | 0.03 | 0.00 | 48 | 1008.1 |
| 20260505082512 | 17 | 221 | 0.0 | 0.0 | 0.00 | 0.03 | 0.00 | 47 | 1008.1 |
| 20260505082010 | 17 | 217 | 0.0 | 0.0 | 0.00 | 0.03 | 0.00 | 47 | 1008.1 |
| 20260505081510 | 17 | 220 | 0.0 | 0.0 | 0.00 | 0.03 | 0.00 | 46 | 1008.2 |
| 20260505081007 | 17 | 205 | 0.0 | 0.0 | 0.00 | 0.03 | 0.00 | 46 | 1008.3 |
| 20260505080510 | 17 | 219 | 0.0 | 0.0 | 0.00 | 0.03 | 0.00 | 45 | 1008.3 |
| 20260505080006 | 18 | 227 | 0.0 | 0.0 | 0.00 | 0.03 | 0.00 | 45 | 1008.3 |
| 20260505075504 | 18 | 231 | 0.0 | 0.0 | 0.00 | 0.03 | 0.00 | 45 | 1008.2 |
| 20260505075006 | 18 | 229 | 0.0 | 0.0 | 0.00 | 0.03 | 0.00 | 44 | 1008.2 |
| 20260505074504 | 18 | 223 | 0.0 | 0.0 | 0.00 | 0.03 | 0.00 | 44 | 1008.2 |
| 20260505074003 | 18 | 192 | 0.0 | 0.0 | 0.00 | 0.03 | 0.00 | 44 | 1008.1 |
| 20260505073505 | 18 | 200 | 0.0 | 0.0 | 0.00 | 0.03 | 0.00 | 44 | 1008.0 |
| 20260505073003 | 18 | 219 | 0.0 | 0.0 | 0.00 | 0.03 | 0.00 | 44 | 1007.9 |
| 20260505072501 | 18 | 199 | 0.0 | 0.0 | 0.00 | 0.03 | 0.00 | 44 | 1007.9 |
| 20260505072001 | 18 | 219 | 0.0 | 0.0 | 0.00 | 0.03 | 0.00 | 43 | 1008.0 |
| 20260505071501 | 18 | 229 | 0.0 | 11.3 | 0.00 | 0.03 | 0.00 | 43 | 1007.9 |
| 20260505071100 | 18 | 222 | 0.0 | 19.3 | 0.00 | 0.03 | 0.00 | 43 | 1008.0 |
| 20260505070600 | 18 | 236 | 9.7 | 27.4 | 0.00 | 0.03 | 0.00 | 43 | 1007.9 |
| 20260505070107 | 18 | 221 | 14.5 | 27.4 | 0.00 | 0.03 | 0.00 | 43 | 1007.7 |
| 20260505065559 | 18 | 236 | 8.0 | 27.4 | 0.00 | 0.43 | 0.00 | 43 | 1007.6 |
| 20260505065058 | 18 | 218 | 8.0 | 27.4 | 0.00 | 0.43 | 0.00 | 43 | 1007.7 |
| 20260505064644 | 18 | 243 | 9.7 | 16.1 | 0.00 | 0.43 | 0.00 | 43 | 1007.8 |
| 20260505064159 | 18 | 231 | 6.4 | 11.3 | 0.00 | 0.43 | 0.00 | 43 | 1007.8 |
| 20260505063556 | 18 | 219 | 0.0 | 0.0 | 0.00 | 0.43 | 0.00 | 43 | 1007.7 |
| 20260505063100 | 18 | 207 | 0.0 | 0.0 | 0.00 | 0.43 | 0.00 | 43 | 1007.7 |
| 20260505062556 | 18 | 217 | 0.0 | 0.0 | 0.00 | 0.43 | 0.00 | 43 | 1007.7 |
| 20260505062056 | 18 | 197 | 0.0 | 0.0 | 0.00 | 0.43 | 0.00 | 43 | 1007.6 |
| 20260505061555 | 18 | 200 | 0.0 | 0.0 | 0.00 | 0.43 | 0.00 | 44 | 1007.6 |
| 20260505061055 | 18 | 233 | 0.0 | 0.0 | 0.00 | 0.43 | 0.00 | 43 | 1007.6 |
| 20260505060557 | 18 | 198 | 0.0 | 0.0 | 0.00 | 0.43 | 0.00 | 44 | 1007.5 |
| 20260505060054 | 18 | 198 | 0.0 | 0.0 | 0.00 | 0.43 | 0.00 | 44 | 1007.4 |
| 20260505055553 | 18 | 206 | 0.0 | 0.0 | 0.00 | 0.43 | 0.00 | 44 | 1007.6 |
| 20260505055053 | 18 | 195 | 0.0 | 0.0 | 0.00 | 0.43 | 0.00 | 44 | 1007.6 |
| 20260505054553 | 18 | 204 | 0.0 | 0.0 | 0.00 | 0.43 | 0.00 | 44 | 1007.7 |
| 20260505054152 | 18 | 208 | 0.0 | 0.0 | 0.00 | 0.43 | 0.00 | 44 | 1007.8 |
| 20260505053552 | 18 | 194 | 0.0 | 0.0 | 0.00 | 0.43 | 0.00 | 44 | 1007.8 |
| 20260505053051 | 18 | 200 | 0.0 | 1.6 | 0.00 | 0.43 | 0.00 | 44 | 1007.8 |
| 20260505052551 | 18 | 199 | 0.0 | 0.0 | 0.00 | 0.43 | 0.00 | 44 | 1007.8 |
| 20260505052051 | 18 | 206 | 0.0 | 0.0 | 0.00 | 0.43 | 0.00 | 43 | 1007.8 |
| 20260505051550 | 18 | 204 | 0.0 | 0.0 | 0.00 | 0.43 | 0.00 | 43 | 1007.8 |
| 20260505051051 | 18 | 198 | 0.0 | 0.0 | 0.00 | 0.43 | 0.00 | 43 | 1007.9 |
| 20260505050548 | 18 | 217 | 0.0 | 0.0 | 0.00 | 0.43 | 0.00 | 43 | 1008.0 |
| 20260505041543 | 20 | 181 | 0.0 | 0.0 | 0.00 | 0.43 | 0.00 | 40 | 1008.0 |
| 20260505041143 | 20 | 192 | 0.0 | 0.0 | 0.00 | 0.43 | 0.00 | 40 | 1008.0 |
| 20260505040543 | 20 | 195 | 0.0 | 0.0 | 0.00 | 0.43 | 0.00 | 40 | 1008.0 |
| 20260505040042 | 20 | 210 | 0.0 | 0.0 | 0.00 | 0.43 | 0.00 | 39 | 1008.0 |
| 20260505035540 | 20 | 211 | 0.0 | 0.0 | 0.00 | 0.43 | 0.43 | 39 | 1008.0 |
| 20260505035040 | 20 | 219 | 0.0 | 0.0 | 0.00 | 0.43 | 0.43 | 39 | 1008.0 |
| 20260505034556 | 20 | 228 | 0.0 | 0.0 | 0.00 | 0.43 | 0.43 | 39 | 1008.0 |
| 20260505034040 | 20 | 227 | 0.0 | 0.0 | 0.00 | 0.43 | 0.43 | 38 | 1007.9 |
| 20260505033540 | 20 | 257 | 0.0 | 0.0 | 0.00 | 0.43 | 0.43 | 38 | 1008.0 |
| 20260505033042 | 20 | 233 | 0.0 | 0.0 | 0.00 | 0.43 | 0.43 | 38 | 1007.9 |
| 20260505032540 | 20 | 221 | 0.0 | 0.0 | 0.00 | 0.43 | 0.43 | 38 | 1008.0 |
| 20260505032039 | 20 | 227 | 0.0 | 0.0 | 0.00 | 0.43 | 0.43 | 37 | 1007.9 |
| 20260505031539 | 21 | 228 | 0.0 | 0.0 | 0.00 | 0.43 | 0.43 | 37 | 1007.9 |
| 20260505031038 | 21 | 199 | 0.0 | 0.0 | 0.00 | 0.43 | 0.43 | 37 | 1007.8 |
| 20260505030541 | 21 | 227 | 0.0 | 0.0 | 0.00 | 0.43 | 0.43 | 37 | 1007.7 |
| 20260505030046 | 21 | 210 | 0.0 | 0.0 | 0.00 | 0.43 | 0.43 | 37 | 1007.6 |
| 20260505025538 | 21 | 215 | 0.0 | 0.0 | 0.00 | 0.43 | 0.43 | 37 | 1007.4 |
| 20260505025038 | 21 | 221 | 0.0 | 0.0 | 0.00 | 0.43 | 0.43 | 37 | 1007.4 |
| 20260505024537 | 21 | 236 | 0.0 | 0.0 | 0.00 | 0.43 | 0.43 | 37 | 1007.3 |
| 20260505024037 | 21 | 242 | 0.0 | 0.0 | 0.00 | 0.43 | 0.43 | 38 | 1007.2 |
| 20260505023537 | 21 | 223 | 0.0 | 0.0 | 0.00 | 0.43 | 0.43 | 37 | 1007.2 |
| 20260505023043 | 21 | 194 | 0.0 | 0.0 | 0.00 | 0.43 | 0.43 | 37 | 1007.0 |
| 20260505022537 | 21 | 233 | 0.0 | 9.7 | 0.00 | 0.43 | 0.43 | 37 | 1007.0 |
| 20260505022037 | 21 | 219 | 0.0 | 9.7 | 0.00 | 0.43 | 0.43 | 37 | 1006.9 |
| 20260505021537 | 21 | 219 | 0.0 | 0.0 | 0.00 | 0.43 | 0.43 | 37 | 1006.9 |
| 20260505021035 | 21 | 213 | 0.0 | 0.0 | 0.00 | 0.43 | 0.43 | 37 | 1006.8 |
| 20260505020536 | 21 | 219 | 0.0 | 0.0 | 0.00 | 0.43 | 0.43 | 36 | 1006.7 |
| 20260505020047 | 21 | 232 | 0.0 | 0.0 | 0.00 | 0.43 | 0.43 | 36 | 1006.8 |
| 20260505015535 | 21 | 210 | 0.0 | 0.0 | 0.00 | 0.43 | 0.43 | 36 | 1006.6 |
| 20260505015035 | 21 | 195 | 0.0 | 0.0 | 0.00 | 0.43 | 0.43 | 36 | 1006.5 |
| 20260505014540 | 21 | 216 | 0.0 | 0.0 | 0.00 | 0.43 | 0.43 | 36 | 1006.3 |
| 20260505014036 | 21 | 216 | 0.0 | 9.7 | 0.00 | 0.43 | 0.43 | 36 | 1006.2 |
| 20260505013536 | 21 | 212 | 1.6 | 11.3 | 0.00 | 0.43 | 0.43 | 36 | 1006.0 |
| 20260505013039 | 21 | 216 | 6.4 | 11.3 | 0.00 | 0.43 | 0.43 | 36 | 1005.8 |
| 20260505012536 | 21 | 217 | 6.4 | 16.1 | 0.00 | 0.43 | 0.43 | 36 | 1005.8 |
| 20260505012038 | 22 | 195 | 6.4 | 16.1 | 0.00 | 0.43 | 0.43 | 35 | 1005.7 |
| 20260505011534 | 22 | 190 | 1.6 | 14.5 | 0.00 | 0.43 | 0.43 | 34 | 1005.6 |
| 20260505011033 | 22 | 196 | 8.0 | 25.7 | 0.00 | 0.43 | 0.43 | 34 | 1005.6 |
| 20260505010535 | 22 | 202 | 9.7 | 25.7 | 0.00 | 0.43 | 0.43 | 34 | 1005.7 |
| 20260505010033 | 22 | 188 | 12.9 | 24.1 | 0.00 | 0.43 | 0.43 | 33 | 1005.6 |
| 20260505005533 | 22 | 202 | 1.6 | 9.7 | 0.00 | 0.43 | 0.43 | 33 | 1005.6 |
| 20260505005033 | 22 | 173 | 0.0 | 1.6 | 0.00 | 0.43 | 0.43 | 33 | 1005.5 |
| 20260505004554 | 22 | 199 | 0.0 | 0.0 | 0.00 | 0.43 | 0.43 | 33 | 1005.6 |
| 20260505004031 | 22 | 202 | 0.0 | 0.0 | 0.00 | 0.43 | 0.43 | 33 | 1005.8 |
| 20260505003534 | 22 | 210 | 0.0 | 0.0 | 0.00 | 0.43 | 0.43 | 32 | 1005.8 |
| 20260505003031 | 22 | 214 | 0.0 | 0.0 | 0.00 | 0.43 | 0.43 | 32 | 1005.7 |
| 20260505002530 | 23 | 211 | 0.0 | 0.0 | 0.00 | 0.43 | 0.43 | 32 | 1005.7 |
| 20260505002030 | 23 | 213 | 0.0 | 0.0 | 0.00 | 0.43 | 0.43 | 32 | 1005.9 |
| 20260505001535 | 23 | 223 | 0.0 | 0.0 | 0.00 | 0.43 | 0.43 | 32 | 1005.9 |
| 20260505001032 | 23 | 191 | 0.0 | 0.0 | 0.00 | 0.43 | 0.43 | 33 | 1006.0 |
| 20260505000527 | 23 | 236 | 0.0 | 0.0 | 0.00 | 0.43 | 0.43 | 33 | 1006.0 |
| 20260505000026 | 23 | 226 | 0.0 | 0.0 | 0.00 | 0.43 | 0.43 | 33 | 1006.2 |